Weather History for KPRO - October, 2011

Change the Weather History Date:

Thursday, October 6, 2011

  Actual Average Record
Temperature  
Mean Temperature 63 °F -  
Max Temperature 80 °F 67 °F 94 °F (1963)
Min Temperature 46 °F 41 °F 22 °F (1952)
Degree Days  
Heating Degree Days 2    
Growing Degree Days 13 (Base 50)    
Moisture  
Dew Point 39 °F    
Average Humidity 43    
Maximum Humidity 82    
Minimum Humidity 18    
Precipitation  
Precipitation 0.00 in - - ()
Sea Level Pressure  
Sea Level Pressure 30.04 in    
Wind  
Wind Speed 9 mph (SE)    
Max Wind Speed 21 mph    
Max Gust Speed 31 mph    
Visibility 10 miles    
Events      
Averages and records for this station are not official NWS values.
T = Trace of Precipitation, MM = Missing Value Source: NWS Daily Summary

Daily Weather History Graph

Daily Weather History Graph

Search for Another Location

Airport or City:

Trip Planner

Search our weather history database for the weather conditions in past years. The results will help you decide how hot, cold, wet, or windy it might be!

Date:

Astronomy

Oct. 06, 2011 Rise Set
Actual Time 7:18 AM CDT 6:50 PM CDT
Civil Twilight 6:50 AM CDT 7:18 PM CDT
Nautical Twilight 6:18 AM CDT 7:50 PM CDT
Astronomical Twilight 5:46 AM CDT 8:22 PM CDT
Moon 4:07 PM CDT (10/6) 2:03 AM CDT (10/6)
Length of Visible Light 12h 27m
Length of Day
11h 31m
Waxing Gibbous, 75% of the Moon is Illuminated
Oct 6
Waxing Gibbous
Oct 11
Full
Oct 19
Last Quarter
Oct 26
New
Nov 2
First Quarter

Hourly Weather History & Observations

Time (CDT) Temp. Windchill Dew Point Humidity Pressure Visibility Wind Dir Wind Speed Gust Speed Precip Events Conditions
12:15 AM 59.0 °F - 41.0 °F 51% 30.06 in 10.0 mi SSE 5.8 mph - N/A   Clear
12:35 AM 59.0 °F - 41.0 °F 51% 30.06 in 10.0 mi SSE 6.9 mph - N/A   Clear
1:15 AM 53.6 °F - 41.0 °F 62% 30.06 in 10.0 mi SE 5.8 mph - N/A   Clear
1:35 AM 53.6 °F - 41.0 °F 62% 30.06 in 10.0 mi SSE 5.8 mph - N/A   Clear
1:55 AM 53.6 °F - 41.0 °F 62% 30.07 in 10.0 mi SE 6.9 mph - N/A   Clear
2:15 AM 51.8 °F - 41.0 °F 67% 30.07 in 10.0 mi SE 6.9 mph - N/A   Clear
2:35 AM 53.6 °F - 41.0 °F 62% 30.07 in 10.0 mi SSE 6.9 mph - N/A   Clear
2:55 AM 53.6 °F - 41.0 °F 62% 30.06 in 10.0 mi SE 5.8 mph - N/A   Clear
3:15 AM 51.8 °F - 41.0 °F 67% 30.06 in 10.0 mi SE 6.9 mph - N/A   Clear
3:35 AM 53.6 °F - 41.0 °F 62% 30.07 in 10.0 mi SE 6.9 mph - N/A   Clear
3:55 AM 53.6 °F - 41.0 °F 62% 30.07 in 10.0 mi SSE 5.8 mph - N/A   Clear
4:15 AM 51.8 °F - 41.0 °F 67% 30.07 in 10.0 mi SE 6.9 mph - N/A   Clear
4:35 AM 50.0 °F - 41.0 °F 71% 30.07 in 10.0 mi ESE 6.9 mph - N/A   Clear
4:55 AM 50.0 °F - 41.0 °F 71% 30.07 in 10.0 mi East 5.8 mph - N/A   Clear
5:15 AM 50.0 °F - 41.0 °F 71% 30.07 in 10.0 mi East 6.9 mph - N/A   Clear
5:35 AM 48.2 °F - 41.0 °F 76% 30.07 in 10.0 mi East 6.9 mph - N/A   Clear
5:55 AM 48.2 °F - 41.0 °F 76% 30.07 in 10.0 mi East 5.8 mph - N/A   Clear
6:15 AM 46.4 °F 44.3 °F 41.0 °F 81% 30.07 in 10.0 mi ESE 4.6 mph - N/A   Clear
6:35 AM 46.4 °F 43.5 °F 41.0 °F 81% 30.08 in 10.0 mi ESE 5.8 mph - N/A   Clear
6:55 AM 46.4 °F 44.3 °F 41.0 °F 81% 30.08 in 10.0 mi SE 4.6 mph - N/A   Clear
7:15 AM 48.2 °F - 41.0 °F 76% 30.08 in 10.0 mi SE 6.9 mph - N/A   Clear
7:35 AM 46.4 °F 42.9 °F 41.0 °F 81% 30.08 in 7.0 mi ESE 6.9 mph - N/A   Clear
7:55 AM 48.2 °F - 42.8 °F 82% 30.09 in 10.0 mi ESE 5.8 mph - N/A   Clear
8:15 AM 51.8 °F - 42.8 °F 71% 30.09 in 10.0 mi East 4.6 mph - N/A   Clear
8:55 AM 59.0 °F - 44.6 °F 59% 30.09 in 7.0 mi SE 9.2 mph - N/A   Clear
9:15 AM 62.6 °F - 44.6 °F 52% 30.09 in 10.0 mi SE 10.4 mph - N/A   Clear
9:35 AM 64.4 °F - 42.8 °F 45% 30.09 in 10.0 mi SE 9.2 mph 17.3 mph N/A   Clear
9:55 AM 68.0 °F - 42.8 °F 40% 30.09 in 10.0 mi SE 12.7 mph 16.1 mph N/A   Clear
10:35 AM 69.8 °F - 42.8 °F 38% 30.09 in 10.0 mi SSE 9.2 mph 17.3 mph N/A   Clear
10:55 AM 71.6 °F - 42.8 °F 35% 30.08 in 10.0 mi SE 11.5 mph 17.3 mph N/A   Clear
11:15 AM 73.4 °F - 42.8 °F 33% 30.07 in 10.0 mi SE 11.5 mph 19.6 mph N/A   Clear
11:35 AM 77.0 °F - 41.0 °F 28% 30.07 in 10.0 mi SSE 13.8 mph 17.3 mph N/A   Clear
11:55 AM 77.0 °F - 41.0 °F 28% 30.06 in 10.0 mi SE 16.1 mph 20.7 mph N/A   Clear
12:15 PM 78.8 °F - 39.2 °F 24% 30.06 in 10.0 mi SE 11.5 mph 21.9 mph N/A   Clear
12:35 PM 78.8 °F - 37.4 °F 23% 30.05 in 10.0 mi SE 17.3 mph 20.7 mph N/A   Clear
12:55 PM 80.6 °F - 37.4 °F 21% 30.05 in 10.0 mi SSE 17.3 mph 27.6 mph N/A   Clear
1:15 PM 78.8 °F - 35.6 °F 21% 30.04 in 10.0 mi SSE 13.8 mph 23.0 mph N/A   Clear
1:35 PM 78.8 °F - 35.6 °F 21% 30.03 in 10.0 mi SSE 17.3 mph 23.0 mph N/A   Clear
1:55 PM 80.6 °F - 35.6 °F 20% 30.02 in 10.0 mi SSE 15.0 mph 25.3 mph N/A   Clear
2:15 PM 80.6 °F - 35.6 °F 20% 30.02 in 10.0 mi SE 17.3 mph 23.0 mph N/A   Clear
2:35 PM 80.6 °F - 35.6 °F 20% 30.00 in 10.0 mi SE 17.3 mph 25.3 mph N/A   Clear
2:55 PM 80.6 °F - 33.8 °F 18% 30.00 in 10.0 mi SE 16.1 mph 21.9 mph N/A   Clear
3:35 PM 80.6 °F - 33.8 °F 18% 30.00 in 10.0 mi SE 15.0 mph 27.6 mph N/A   Clear
3:55 PM 78.8 °F - 35.6 °F 21% 29.99 in 10.0 mi SE 16.1 mph 24.2 mph N/A   Clear
4:15 PM 80.6 °F - 35.6 °F 20% 29.99 in 10.0 mi SE 19.6 mph 25.3 mph N/A   Clear
4:35 PM 80.6 °F - 35.6 °F 20% 29.98 in 10.0 mi SE 20.7 mph 31.1 mph N/A   Clear
4:55 PM 80.6 °F - 33.8 °F 18% 29.97 in 10.0 mi SE 18.4 mph 28.8 mph N/A   Clear
5:15 PM 80.6 °F - 33.8 °F 18% 29.97 in 10.0 mi SE 16.1 mph 28.8 mph N/A   Clear
5:35 PM 80.6 °F - 33.8 °F 18% 29.98 in 10.0 mi SE 16.1 mph 21.9 mph N/A   Clear
5:55 PM 78.8 °F - 33.8 °F 20% 29.97 in 10.0 mi SE 15.0 mph 21.9 mph N/A   Clear
6:15 PM 78.8 °F - 33.8 °F 20% 29.97 in 10.0 mi SE 12.7 mph 17.3 mph N/A   Clear
6:35 PM 77.0 °F - 33.8 °F 21% 29.97 in 10.0 mi SE 10.4 mph 18.4 mph N/A   Clear
6:55 PM 77.0 °F - 35.6 °F 22% 29.97 in 10.0 mi SE 11.5 mph 17.3 mph N/A   Clear
7:15 PM 75.2 °F - 35.6 °F 24% 29.97 in 10.0 mi SE 12.7 mph 17.3 mph N/A   Clear
7:35 PM 73.4 °F - 35.6 °F 25% 29.97 in 10.0 mi ESE 11.5 mph 17.3 mph N/A   Clear
7:55 PM 73.4 °F - 35.6 °F 25% 29.97 in 10.0 mi ESE 9.2 mph 17.3 mph N/A   Clear
8:15 PM 71.6 °F - 37.4 °F 29% 29.98 in 10.0 mi SE 12.7 mph 17.3 mph N/A   Clear
8:35 PM 71.6 °F - 37.4 °F 29% 29.98 in 10.0 mi SE 11.5 mph - N/A   Clear
9:15 PM 71.6 °F - 37.4 °F 29% 29.98 in 10.0 mi SE 11.5 mph 16.1 mph N/A   Clear
9:35 PM 71.6 °F - 37.4 °F 29% 29.98 in 10.0 mi SE 10.4 mph 16.1 mph N/A   Clear
9:55 PM 69.8 °F - 39.2 °F 33% 29.99 in 10.0 mi SE 10.4 mph - N/A   Clear
10:15 PM 69.8 °F - 41.0 °F 35% 29.99 in 10.0 mi SE 10.4 mph - N/A   Clear
10:35 PM 69.8 °F - 41.0 °F 35% 29.99 in 10.0 mi SE 11.5 mph - N/A   Clear
10:55 PM 68.0 °F - 42.8 °F 40% 29.99 in 10.0 mi SE 10.4 mph - N/A   Clear
11:15 PM 68.0 °F - 42.8 °F 40% 29.99 in 10.0 mi SE 11.5 mph - N/A   Clear
11:35 PM 68.0 °F - 44.6 °F 43% 29.99 in 10.0 mi SE 10.4 mph - N/A   Clear
11:55 PM 68.0 °F - 44.6 °F 43% 29.98 in 10.0 mi SE 12.7 mph 17.3 mph N/A   Clear